timestamp,surface_pressure_avg,surface_temp_avg,battery_voltage,lat,long
2020-09-12 00:09:01+00:00,233.2314,17.9,12.81,47.84626,-54.09684
2020-09-12 00:19:01+00:00,231.2464,17.9,12.73,47.84626,-54.09684
2020-09-12 00:29:01+00:00,232.4148,17.9,12.73,47.84626,-54.09684
2020-09-12 00:39:01+00:00,231.8265,17.9,12.73,47.84626,-54.09684
2020-09-12 00:49:01+00:00,231.7415,17.9,12.73,47.84626,-54.09684
2020-09-12 00:59:01+00:00,227.6148,17.8,12.73,47.84626,-54.09684
2020-09-12 01:09:01+00:00,223.4998,17.79,12.73,47.84626,-54.09684
2020-09-12 01:19:01+00:00,224.8198,17.77,12.65,47.84626,-54.09684
2020-09-12 01:29:01+00:00,230.2931,17.6,12.65,47.84626,-54.09684
2020-09-12 01:39:01+00:00,228.6931,17.6,12.65,47.84626,-54.09684
2020-09-12 01:49:01+00:00,226.1797,17.6,12.65,47.84626,-54.09684
2020-09-12 01:59:01+00:00,228.6681,17.6,12.65,47.84626,-54.09684
2020-09-12 02:09:01+00:00,233.1598,17.6,12.65,47.84626,-54.09684
2020-09-12 02:19:01+00:00,233.0914,17.6,12.65,47.84626,-54.09684
2020-09-12 02:29:01+00:00,234.1446,17.56,12.65,47.84626,-54.09684
2020-09-12 02:39:01+00:00,236.2815,17.5,12.65,47.84626,-54.09684
2020-09-12 02:49:01+00:00,239.3315,17.55,12.65,47.84626,-54.09684
2020-09-12 02:59:01+00:00,242.2064,17.73,12.65,47.84626,-54.09684
2020-09-12 03:09:01+00:00,246.2731,17.77,12.65,47.84626,-54.09684
2020-09-12 03:19:01+00:00,251.3531,17.4,12.65,47.84626,-54.09684
2020-09-12 03:29:01+00:00,256.2297,17.4,12.65,47.84626,-54.09684
2020-09-12 03:39:01+00:00,259.7897,17.4,12.65,47.84626,-54.09684
2020-09-12 03:49:01+00:00,263.0197,17.37,12.65,47.84626,-54.09684
2020-09-12 03:59:01+00:00,268.4931,17.3,12.65,47.84626,-54.09684
2020-09-12 04:09:01+00:00,274.1331,17.38,12.65,47.84626,-54.09684
2020-09-12 04:19:01+00:00,276.0214,17.3,12.57,47.84626,-54.09684
2020-09-12 04:29:01+00:00,275.5598,17.39,12.57,47.84626,-54.09684
2020-09-12 04:39:01+00:00,278.9614,17.3,12.57,47.84626,-54.09684
2020-09-12 04:49:01+00:00,283.0414,17.2,12.57,47.84626,-54.09684
2020-09-12 04:59:01+00:00,285.2014,17.29,12.57,47.84626,-54.09684
2020-09-12 05:09:01+00:00,285.4031,17.36,12.57,47.84626,-54.09684
2020-09-12 05:19:01+00:00,285.64799999999997,17.38,12.57,47.84626,-54.09684
2020-09-12 05:29:01+00:00,290.683,17.38,12.57,47.84626,-54.09684
2020-09-12 05:39:01+00:00,294.6096,17.37,12.57,47.84626,-54.09684
2020-09-12 05:49:01+00:00,294.078,17.35,12.57,47.84626,-54.09684
2020-09-12 05:59:01+00:00,294.4979,17.35,12.57,47.84626,-54.09684
2020-09-12 06:09:01+00:00,299.9097,17.3,12.57,47.84626,-54.09684
2020-09-12 06:19:01+00:00,299.0397,17.3,12.57,47.84626,-54.09684
2020-09-12 06:29:01+00:00,295.2114,17.3,12.57,47.84626,-54.09684
2020-09-12 06:39:01+00:00,297.2931,17.26,12.57,47.84626,-54.09684
2020-09-12 06:49:01+00:00,297.8981,17.2,12.57,47.84626,-54.09684
2020-09-12 06:59:01+00:00,291.3414,17.2,12.57,47.84626,-54.09684
2020-09-12 07:09:01+00:00,290.0748,17.2,12.57,47.84626,-54.09684
2020-09-12 07:19:01+00:00,292.3798,17.2,12.57,47.84626,-54.09684
2020-09-12 07:29:01+00:00,290.7714,17.17,12.57,47.84626,-54.09684
2020-09-12 07:39:01+00:00,289.0831,17.1,12.57,47.84626,-54.09684
2020-09-12 07:49:01+00:00,289.938,17.1,12.57,47.84626,-54.09684
2020-09-12 07:59:01+00:00,290.4797,17.09,12.57,47.84626,-54.09684
2020-09-12 08:09:01+00:00,287.9297,17.06,12.57,47.84626,-54.09684
2020-09-12 08:19:01+00:00,283.5564,17.06,12.57,47.84626,-54.09684
2020-09-12 08:29:01+00:00,281.7347,17.0,12.57,47.84626,-54.09684
2020-09-12 08:39:01+00:00,280.403,16.98,12.57,47.84626,-54.09684
2020-09-12 08:49:01+00:00,277.7514,16.9,12.57,47.84626,-54.09684
2020-09-12 08:59:01+00:00,273.1981,16.91,12.57,47.84626,-54.09684
2020-09-12 09:09:01+00:00,272.4064,16.95,12.57,47.84626,-54.09684
2020-09-12 09:19:01+00:00,264.8981,16.96,12.57,47.84626,-54.09684
2020-09-12 09:29:01+00:00,259.273,16.92,12.57,47.84626,-54.09684
2020-09-12 09:39:01+00:00,253.9281,16.93,12.57,47.84626,-54.09684
2020-09-12 09:49:01+00:00,246.6714,16.92,12.57,47.84626,-54.09684
2020-09-12 09:59:01+00:00,241.3481,16.92,12.57,47.84626,-54.09684
2020-09-12 10:09:01+00:00,241.5981,16.92,12.57,47.84626,-54.09684
2020-09-12 10:19:01+00:00,235.6914,16.93,13.44,47.84626,-54.09684
2020-09-12 10:29:01+00:00,230.3981,16.91,13.44,47.84626,-54.09684
2020-09-12 10:39:01+00:00,229.2131,16.91,13.44,47.84626,-54.09684
2020-09-12 10:49:01+00:00,226.218,16.9,13.44,47.84626,-54.09684
2020-09-12 10:59:01+00:00,223.2198,16.87,13.44,47.84626,-54.09684
2020-09-12 11:09:01+00:00,224.0797,16.85,13.44,47.84626,-54.09684
2020-09-12 11:19:01+00:00,224.6797,16.87,14.32,47.84626,-54.09684
2020-09-12 11:29:01+00:00,224.2998,16.8,14.32,47.84626,-54.09684
2020-09-12 11:39:01+00:00,225.2981,16.8,14.32,47.84626,-54.09684
2020-09-12 11:49:01+00:00,224.613,16.8,14.32,47.84626,-54.09684
2020-09-12 11:59:01+00:00,224.9431,16.8,14.32,47.84626,-54.09684
2020-09-12 12:09:01+00:00,222.7981,16.8,14.32,47.84626,-54.09684
2020-09-12 12:19:01+00:00,220.643,16.7,14.56,47.84626,-54.09684
2020-09-12 12:29:01+00:00,222.3597,16.67,14.56,47.84626,-54.09684
2020-09-12 12:39:01+00:00,221.6697,16.6,14.56,47.84626,-54.09684
2020-09-12 12:49:01+00:00,220.8648,16.6,14.56,47.84626,-54.09684
2020-09-12 12:59:01+00:00,220.6797,16.66,14.56,47.84626,-54.09684
2020-09-12 13:09:01+00:00,220.6531,16.7,14.56,47.84626,-54.09684
2020-09-12 13:19:01+00:00,219.4849,16.7,14.56,47.84626,-54.09684
2020-09-12 13:29:01+00:00,224.3431,16.77,14.56,47.84626,-54.09684
2020-09-12 13:39:01+00:00,225.2314,16.8,14.56,47.84626,-54.09684
2020-09-12 13:49:01+00:00,219.4064,16.79,14.56,47.84626,-54.09684
2020-09-12 13:59:01+00:00,221.8248,16.77,14.56,47.84626,-54.09684
2020-09-12 14:09:01+00:00,230.9297,16.8,14.56,47.84626,-54.09684
2020-09-12 14:19:01+00:00,230.6614,16.8,14.56,47.84626,-54.09684
2020-09-12 14:29:01+00:00,227.8548,16.8,14.56,47.84626,-54.09684
2020-09-12 14:39:01+00:00,235.6531,16.8,14.56,47.84626,-54.09684
2020-09-12 14:49:01+00:00,240.6864,16.8,14.56,47.84626,-54.09684
2020-09-12 14:59:01+00:00,238.5082,16.8,14.56,47.84626,-54.09684
2020-09-12 15:09:01+00:00,241.3381,16.8,14.56,47.84626,-54.09684
2020-09-12 15:19:01+00:00,249.6614,16.8,14.48,47.84626,-54.09684
2020-09-12 15:29:01+00:00,254.5115,16.7,14.48,47.84626,-54.09684
2020-09-12 15:39:01+00:00,256.6747,16.73,14.48,47.84626,-54.09684
2020-09-12 15:49:01+00:00,260.9131,16.8,14.48,47.84626,-54.09684
2020-09-12 15:59:01+00:00,266.1297,16.81,14.48,47.84626,-54.09684
2020-09-12 16:09:01+00:00,264.2898,16.89,14.48,47.84626,-54.09684
2020-09-12 16:19:01+00:00,262.6281,16.89,14.32,47.84626,-54.09684
2020-09-12 16:29:01+00:00,268.6664,16.8,14.32,47.84626,-54.09684
2020-09-12 16:39:01+00:00,276.2548,16.79,14.32,47.84626,-54.09684
2020-09-12 16:49:01+00:00,280.098,16.77,14.32,47.84626,-54.09684
2020-09-12 16:59:01+00:00,283.9647,16.7,14.32,47.84626,-54.09684
2020-09-12 17:09:01+00:00,287.0097,16.7,14.32,47.84626,-54.09684
2020-09-12 17:19:01+00:00,290.8898,16.7,14.0,47.84626,-54.09684
2020-09-12 17:29:01+00:00,291.3397,16.7,14.0,47.84626,-54.09684
2020-09-12 17:39:01+00:00,294.4681,16.68,14.0,47.84626,-54.09684
2020-09-12 17:49:01+00:00,297.2097,16.66,14.0,47.84626,-54.09684
2020-09-12 17:59:01+00:00,302.0897,16.6,14.0,47.84626,-54.09684
2020-09-12 18:09:01+00:00,303.7864,16.58,14.0,47.84626,-54.09684
2020-09-12 18:19:01+00:00,306.1513,16.6,14.16,47.84626,-54.09684
2020-09-12 18:29:01+00:00,305.2463,16.6,14.16,47.84626,-54.09684
2020-09-12 18:39:01+00:00,306.748,16.6,14.16,47.84626,-54.09684
2020-09-12 18:49:01+00:00,306.7363,16.66,14.16,47.84626,-54.09684
2020-09-12 18:59:01+00:00,307.7397,16.69,14.16,47.84626,-54.09684
2020-09-12 19:09:01+00:00,306.2297,16.7,14.16,47.84626,-54.09684
2020-09-12 19:19:01+00:00,308.243,16.6,13.76,47.84626,-54.09684
2020-09-12 19:29:01+00:00,311.6664,16.5,13.76,47.84626,-54.09684
2020-09-12 19:39:01+00:00,313.3347,16.58,13.76,47.84626,-54.09684
2020-09-12 19:49:01+00:00,310.0497,16.6,13.76,47.84626,-54.09684
2020-09-12 19:59:01+00:00,316.743,16.59,13.76,47.84626,-54.09684
2020-09-12 20:09:01+00:00,321.6362,16.5,13.76,47.84626,-54.09684
2020-09-12 20:19:01+00:00,316.3163,16.6,13.68,47.84626,-54.09684
2020-09-12 20:29:01+00:00,308.7014,16.6,13.68,47.84626,-54.09684
2020-09-12 20:39:01+00:00,311.5996,16.6,13.68,47.84626,-54.09684
2020-09-12 20:49:01+00:00,312.7797,16.6,13.68,47.84626,-54.09684
2020-09-12 20:59:01+00:00,305.3814,16.6,13.68,47.84626,-54.09684
2020-09-12 21:09:01+00:00,302.2547,16.6,13.68,47.84626,-54.09684
2020-09-12 21:19:01+00:00,302.5696,16.6,13.53,47.84626,-54.09684
2020-09-12 21:29:01+00:00,296.5181,16.62,13.53,47.84626,-54.09684
2020-09-12 21:39:01+00:00,285.373,16.67,13.53,47.84626,-54.09684
2020-09-12 21:49:01+00:00,283.6814,16.69,13.53,47.84626,-54.09684
2020-09-12 21:59:01+00:00,282.4014,16.7,13.53,47.84626,-54.09684
2020-09-12 22:09:01+00:00,273.0564,16.7,13.53,47.84626,-54.09684
2020-09-12 22:19:01+00:00,263.8414,16.7,13.13,47.84626,-54.09684
2020-09-12 22:29:01+00:00,261.6814,16.7,13.13,47.84626,-54.09684
2020-09-12 22:39:01+00:00,257.0997,16.69,13.13,47.84626,-54.09684
2020-09-12 22:49:01+00:00,251.3948,16.65,13.13,47.84626,-54.09684
2020-09-12 22:59:01+00:00,248.8531,16.6,13.13,47.84626,-54.09684
2020-09-12 23:09:01+00:00,249.2597,16.6,13.13,47.84626,-54.09684
2020-09-12 23:19:01+00:00,246.933,16.6,12.81,47.84626,-54.09684
2020-09-12 23:29:01+00:00,241.6647,16.6,12.81,47.84626,-54.09684
2020-09-12 23:39:01+00:00,237.2131,16.6,12.81,47.84626,-54.09684
2020-09-12 23:49:01+00:00,235.0481,16.6,12.81,47.84626,-54.09684
2020-09-12 23:59:01+00:00,233.7814,16.6,12.81,47.84626,-54.09684
